Date String (YYYY-MM-DD hh:mm:ss) UTC,Instrument flags,Ambient pressure (hPa),Sample flow (lpm),Bypass flow (lpm),Sample temperature (°C),Ambient temperature (°C),ASC tube jacket temperature (°C),LED temperature (°C),Box temperature (°C),Sample RH (%),Span deviation,Mass concentration (μg/m³),Mass concentration (μg/m³),Mass concentration (μg/m³)
DateTimeUTC,F1_M11,P_M11,Q1_M11,Q2_M11,T1_M11,T2_M11,T3_M11,T4_M11,T5_M11,U1_M11,ZSPAN_M11,X0_M11,X2_M11,X1_M11
2021-09-12 19:00:00,,0831.6,5.00,0.00,29.7,28.9,00.0,38.6,31.6,24.0,0002.5,0012.85,0005.94,0004.72
2021-09-12 19:01:00,,0831.5,5.00,0.00,29.8,28.9,00.0,38.7,31.7,24.1,0002.1,0013.02,0005.92,0004.69
2021-09-12 19:02:00,,0831.5,5.00,0.00,29.8,27.7,00.0,38.7,31.4,24.5,0001.9,0013.01,0005.95,0004.68
2021-09-12 19:03:00,,0831.5,4.99,0.00,29.6,26.1,00.0,38.7,30.9,24.3,0000.8,0012.87,0005.87,0004.65
2021-09-12 19:04:00,,0831.5,5.00,0.00,29.5,26.1,00.0,38.6,30.9,24.3,0000.0,0012.56,0005.77,0004.61
2021-09-12 19:05:00,,0831.5,5.01,0.00,29.5,26.6,00.0,38.6,31.0,24.9,0000.0,0011.78,0005.69,0004.58
2021-09-12 19:06:00,,0831.4,4.98,0.00,29.4,27.1,00.0,38.6,31.1,25.2,0000.0,0011.92,0005.70,0004.58
2021-09-12 19:07:00,,0831.5,5.01,0.00,29.5,27.5,00.0,38.6,31.2,25.3,0000.8,0012.53,0005.69,0004.60
2021-09-12 19:08:00,,0831.5,5.00,0.00,29.5,27.8,00.0,38.6,31.3,25.4,0001.4,0012.61,0005.72,0004.62
2021-09-12 19:09:00,,0831.4,5.00,0.00,29.5,28.1,00.0,38.6,31.4,25.4,0001.5,0012.45,0005.79,0004.65
2021-09-12 19:10:00,,0831.3,5.01,0.00,29.6,28.4,00.0,38.6,31.4,25.3,0001.4,0012.47,0005.84,0004.70
2021-09-12 19:11:00,,0831.3,4.99,0.00,29.6,28.6,00.0,38.6,31.5,25.3,0000.6,0012.53,0005.84,0004.73
2021-09-12 19:12:00,,0831.3,5.00,0.00,29.7,28.8,00.0,38.6,31.6,25.3,0000.3,0012.92,0005.87,0004.77
2021-09-12 19:13:00,,0831.2,5.01,0.00,29.7,28.9,00.0,38.7,31.6,25.5,0000.5,0012.97,0005.87,0004.78
2021-09-12 19:14:00,,0831.2,5.00,0.00,29.7,28.1,00.0,38.7,31.4,24.8,0000.6,0012.93,0005.86,0004.80
2021-09-12 19:15:00,,0831.2,5.01,0.00,29.6,26.3,00.0,38.7,31.0,25.1,0000.6,0013.91,0005.90,0004.83
2021-09-12 19:16:00,,0831.2,5.00,0.00,29.5,25.9,00.0,38.6,30.8,25.2,0000.6,0014.58,0005.94,0004.86
2021-09-12 19:17:00,,0831.2,4.99,0.00,29.4,26.4,00.0,38.6,31.0,25.5,0000.5,0014.41,0005.91,0004.86
2021-09-12 19:18:00,,0831.2,5.00,0.00,29.4,26.8,00.0,38.6,31.0,25.7,0000.7,0015.02,0005.87,0004.83
2021-09-12 19:19:00,,0831.2,5.01,0.00,29.4,27.2,00.0,38.5,31.1,25.4,0000.7,0015.78,0005.85,0004.82
2021-09-12 19:20:00,,0831.1,4.99,0.00,29.4,27.6,00.0,38.5,31.2,25.1,0000.7,0015.78,0005.83,0004.82
2021-09-12 19:21:00,,0831.1,4.99,0.00,29.5,28.0,00.0,38.5,31.3,25.2,0000.4,0015.78,0005.84,0004.81
2021-09-12 19:22:00,,0831.0,5.00,0.00,29.5,28.2,00.0,38.5,31.4,25.0,0000.9,0015.50,0005.85,0004.78
2021-09-12 19:23:00,,0831.0,5.01,0.00,29.6,28.4,00.0,38.6,31.4,25.0,0001.6,0015.98,0005.82,0004.75
2021-09-12 19:24:00,,0831.1,5.00,0.00,29.6,28.6,00.0,38.6,31.5,24.8,0001.1,0016.70,0005.79,0004.73
2021-09-12 19:25:00,,0831.0,5.00,0.00,29.7,28.8,00.0,38.6,31.6,24.9,0000.9,0017.02,0005.79,0004.72
2021-09-12 19:26:00,,0831.0,5.01,0.00,29.7,28.9,00.0,38.6,31.6,25.0,0000.8,0016.12,0005.78,0004.72
2021-09-12 19:27:00,,0830.9,5.01,0.00,29.7,27.8,00.0,38.6,31.3,24.9,0000.4,0015.69,0005.75,0004.72
2021-09-12 19:28:00,,0830.9,4.99,0.00,29.5,26.1,00.0,38.6,30.8,25.3,0000.4,0016.08,0005.74,0004.71
2021-09-12 19:29:00,,0830.8,5.00,0.00,29.4,26.0,00.0,38.6,30.8,25.3,0000.2,0015.08,0005.78,0004.72
2021-09-12 19:30:00,,0830.7,5.01,0.00,29.4,26.4,00.0,38.6,30.9,25.2,-000.0,0014.87,0005.78,0004.72
2021-09-12 19:31:00,,0830.7,4.99,0.00,29.3,26.9,00.0,38.5,31.0,25.4,-000.2,0014.32,0005.77,0004.72
2021-09-12 19:32:00,,0830.7,5.00,0.00,29.4,27.3,00.0,38.5,31.1,25.5,-000.2,0014.36,0005.77,0004.71
2021-09-12 19:33:00,,0830.8,5.01,0.00,29.4,27.7,00.0,38.5,31.2,25.3,-000.7,0014.50,0005.75,0004.71
2021-09-12 19:34:00,,0830.8,4.99,0.00,29.5,28.0,00.0,38.5,31.3,25.2,-001.0,0014.73,0005.73,0004.70
2021-09-12 19:35:00,,0830.7,5.01,0.00,29.5,28.3,00.0,38.5,31.4,25.3,-000.6,0014.54,0005.73,0004.69
2021-09-12 19:36:00,,0830.6,5.00,0.00,29.6,28.5,00.0,38.5,31.4,25.3,-000.6,0014.34,0005.75,0004.69
2021-09-12 19:37:00,,0830.6,4.99,0.00,29.6,28.7,00.0,38.5,31.5,25.2,-000.4,0014.81,0005.76,0004.69
2021-09-12 19:38:00,,0830.6,5.01,0.00,29.7,28.7,00.0,38.6,31.5,24.9,-000.4,0015.05,0005.74,0004.68
2021-09-12 19:39:00,,0830.6,5.01,0.00,29.6,27.3,00.0,38.6,31.1,25.0,-000.3,0014.51,0005.73,0004.67
2021-09-12 19:40:00,,0830.5,4.99,0.00,29.4,26.0,00.0,38.5,30.8,25.1,0000.2,0014.12,0005.71,0004.66
2021-09-12 19:41:00,,0830.5,5.01,0.00,29.4,26.2,00.0,38.5,30.8,25.2,0000.8,0013.79,0005.72,0004.65
2021-09-12 19:42:00,,0830.4,5.00,0.00,29.3,26.6,00.0,38.5,30.9,25.5,0001.4,0014.18,0005.77,0004.64
2021-09-12 19:43:00,,0830.5,4.99,0.00,29.3,27.1,00.0,38.5,31.0,25.8,0001.9,0014.16,0005.72,0004.64
2021-09-12 19:44:00,,0830.4,5.01,0.00,29.4,27.5,00.0,38.5,31.1,25.7,0002.0,0014.12,0005.68,0004.62
2021-09-12 19:45:00,,0830.4,4.99,0.00,29.4,27.9,00.0,38.5,31.2,25.8,0001.9,0012.75,0005.64,0004.61
2021-09-12 19:46:00,,0830.4,5.01,0.00,29.5,28.2,00.0,38.5,31.3,25.9,0001.7,0011.85,0005.59,0004.60
2021-09-12 19:47:00,,0830.4,5.00,0.00,29.5,28.5,00.0,38.5,31.4,25.8,0002.3,0011.72,0005.57,0004.59
2021-09-12 19:48:00,,0830.4,5.01,0.00,29.6,28.1,00.0,38.5,31.3,25.4,0000.0,0011.18,0005.58,0004.58
2021-09-12 19:49:00,,0830.5,5.00,0.00,29.4,26.4,00.0,38.5,30.9,25.5,0000.0,0010.85,0005.58,0004.58
2021-09-12 19:50:00,,0830.3,5.00,0.00,29.3,25.8,00.0,38.5,30.7,25.9,0000.0,0010.87,0005.55,0004.57
2021-09-12 19:51:00,,0830.3,5.01,0.00,29.3,26.3,00.0,38.4,30.8,25.7,0000.0,0010.65,0005.48,0004.55
2021-09-12 19:52:00,,0830.3,5.00,0.00,29.2,26.7,00.0,38.4,30.9,25.8,0000.0,0010.15,0005.40,0004.55
2021-09-12 19:53:00,,0830.3,5.00,0.00,29.2,27.2,00.0,38.4,31.0,25.7,0000.0,0009.77,0005.34,0004.55
2021-09-12 19:54:00,,0830.2,5.00,0.00,29.3,27.6,00.0,38.4,31.1,25.7,0000.0,0009.74,0005.41,0004.57
2021-09-12 19:55:00,,0830.2,5.00,0.00,29.3,27.9,00.0,38.4,31.2,25.8,0000.0,0009.73,0005.44,0004.57
2021-09-12 19:56:00,,0830.2,5.01,0.00,29.4,28.2,00.0,38.4,31.3,25.9,0000.0,0010.29,0005.47,0004.58
2021-09-12 19:57:00,,0830.2,4.99,0.00,29.5,28.4,00.0,38.4,31.3,26.2,0000.0,0010.40,0005.50,0004.58
2021-09-12 19:58:00,,0830.2,5.00,0.00,29.5,28.2,00.0,38.4,31.3,25.6,0001.3,0010.48,0005.53,0004.60
2021-09-12 19:59:00,,0830.1,5.01,0.00,29.4,26.5,00.0,38.4,30.9,25.6,0001.6,0010.90,0005.53,0004.60
